BST,Max TemperatureF,Mean TemperatureF,Min TemperatureF,Max Dew PointF,MeanDew PointF,Min DewpointF,Max Humidity, Mean Humidity, Min Humidity, Max Sea Level PressureIn, Mean Sea Level PressureIn, Min Sea Level PressureIn, Max VisibilityMiles, Mean VisibilityMiles, Min VisibilityMiles, Max Wind SpeedMPH, Mean Wind SpeedMPH, Max Gust SpeedMPH,PrecipitationIn, CloudCover, Events, WindDirDegrees
2013-3-1,47,38,30,34,31,27,93,74,42,30.56,30.49,30.42,19,10,6,8,4,,0.08,2,,284
2013-3-2,55,44,33,39,35,30,100,73,39,30.39,30.28,30.24,19,8,6,14,8,,0.00,3,,270
2013-3-3,48,44,39,41,39,37,100,86,58,30.27,30.18,30.09,19,8,6,10,3,,0.00,7,,275
2013-3-4,45,38,30,36,33,28,100,76,45,30.09,29.92,29.74,12,6,3,10,5,,0.00,7,,183
2013-3-5,47,38,30,36,32,28,100,86,59,29.74,29.69,29.65,7,4,1,9,4,,0.00,6,Fog,312
2013-3-6,41,40,39,39,37,33,93,84,69,29.75,29.72,29.68,7,4,1,14,10,,0.00,8,Rain,82
2013-3-7,43,42,41,41,39,35,100,90,73,29.68,29.65,29.62,6,3,1,24,14,,0.08,8,Rain,83
2013-3-8,40,39,38,38,36,34,93,88,72,29.78,29.71,29.65,9,4,2,26,23,,0.20,8,Rain,100
2013-3-9,39,38,37,36,31,21,93,74,40,29.97,29.85,29.77,16,7,2,22,19,32,0.04,7,Rain-Snow,80
2013-3-10,37,33,29,30,27,19,100,77,46,30.15,30.03,29.95,16,6,1,30,18,38,0.04,6,Rain-Snow-Hail,73
2013-3-11,35,30,24,34,21,14,100,71,36,30.17,30.14,30.12,19,6,1,23,14,34,0.00,4,Snow,29
2013-3-12,43,34,24,29,24,18,80,65,41,30.12,29.96,29.89,6,6,6,15,9,,0.00,6,,302
2013-3-13,42,35,28,28,24,19,86,63,35,29.99,29.92,29.86,19,7,6,17,8,,0.00,3,Snow,321
2013-3-14,44,36,28,38,31,21,93,78,62,29.98,29.80,29.56,19,9,6,14,8,,0.03,7,Rain-Snow,248
2013-3-15,48,38,29,39,35,27,93,80,64,29.53,29.41,29.36,19,8,6,16,10,,0.08,5,Rain-Snow,235
2013-3-16,41,34,28,41,33,26,100,93,81,29.39,29.27,29.18,19,6,2,16,6,,0.16,7,Fog-Rain-Snow,360
2013-3-17,43,36,30,39,36,30,100,89,75,29.33,29.23,29.15,16,7,2,23,10,,0.02,6,Rain-Snow,88
2013-3-18,39,36,32,39,33,28,100,89,68,29.58,29.49,29.33,7,4,1,26,22,39,0.08,8,Rain-Snow,80
2013-3-19,36,34,33,34,32,28,100,87,74,29.72,29.62,29.56,12,5,1,28,23,39,0.12,7,Rain-Snow,75
2013-3-20,39,36,32,32,29,23,93,77,43,30.10,29.92,29.71,16,6,1,22,16,,0.03,6,Rain-Snow,99
2013-3-21,40,34,28,32,29,23,93,78,58,30.13,30.10,30.06,19,7,1,24,11,20,0.04,5,Rain-Snow-Hail,98
2013-3-22,36,34,33,34,28,25,93,71,54,30.14,30.07,30.06,16,6,2,33,29,44,0.02,7,Rain-Snow-Hail,119
2013-3-23,35,34,33,34,25,20,93,65,42,30.27,30.19,30.12,11,6,5,33,30,46,0.01,8,Rain-Snow,110
2013-3-24,36,36,35,27,22,19,70,56,42,30.35,30.30,30.24,19,7,6,29,26,,0.00,6,Snow-Hail,109
2013-3-25,37,35,33,30,25,21,87,62,43,30.36,30.32,30.30,19,8,3,24,20,,0.00,7,Snow-Hail,99
2013-3-26,39,36,32,30,25,19,87,64,36,30.27,30.22,30.18,19,7,6,20,15,,0.01,6,Snow-Hail,91
2013-3-27,41,36,30,32,27,21,100,73,40,30.18,30.13,30.12,16,6,1,18,12,,0.08,5,Snow-Hail,57
2013-3-28,41,34,28,30,26,21,86,64,33,30.14,30.10,30.06,19,8,6,17,10,,0.00,4,Snow,72
2013-3-29,41,34,26,36,26,19,93,75,39,30.04,30.00,29.95,19,7,1,14,6,,0.02,3,Rain-Snow,50
2013-3-30,41,32,24,30,26,23,93,72,39,30.04,30.01,29.98,19,8,6,9,4,,0.00,3,Snow-Hail,45
2013-3-31,42,33,24,28,22,14,93,63,25,30.05,30.03,30.01,19,8,6,12,5,,0.00,6,,164
2013-4-1,,,,,,,,,,,,,,,,,,,,,,